Flag for Congo Dem.Rep. Weather past 2 weeks in Kinshasa, Congo Dem.Rep.

Now
77 °F

Passing clouds.


Feels Like: 79 °F
Forecast: 71 / 91 °F
Wind: 5 mph from West

Location: Brazzaville / Maya-Maya

Current Time: May 30, 2015 at 1:35:11 AM

Latest Report: May 30, 2015 at 12:00 AM


Visibility: 4 mi

Pressure: 29.89 "Hg

Humidity: 79%

Dew point: 70 °F

Location of KinshasaLocation

Historic Weather in Kinshasa — Graph

°F

Kinshasa temperature yesterday

Maximum temperature yesterday: 88 °F (at 3:00 PM)
Minimum temperature yesterday: 73 °F (at 12:00 AM)
Average temperature yesterday: 79 °F

Past Weeks' High & Low Weather Summary

 TemperatureHumidityPressure
High91 °F (May 15, 3:00 PM)100% (May 16, 2:00 AM)30.01 "Hg (May 16, 2:00 AM)
Low72 °F (May 17, 2:00 AM)55% (May 19, 2:00 PM)29.77 "Hg (May 15, 4:00 PM)
Average79 °F81%29.92 "Hg
* Reported Midnight between May 14 and May 15 — Midnight between May 29 and May 30, Kinshasa, Weather by CustomWeather, © 2015

Note: Actual official high and low records may vary slightly from our data, if they occured in-between our weather recording intervals... More about our weather records

Advertising

Kinshasa weather history for previous 24 hours

 ConditionsComfort  
Time TempWeatherWind HumidityBarometerVisibility
12:00 AM
Sat, May 30
77 °FPassing clouds.5 mph79%29.89 "Hg4 mi
11:00 PM
Fri, May 29
77 °FPassing clouds.5 mph79%29.92 "Hg4 mi
10:00 PM77 °FPassing clouds.6 mph79%29.92 "Hg4 mi
9:00 PM79 °FClear.6 mph79%29.89 "Hg4 mi
8:00 PM79 °FClear.5 mph79%29.86 "Hg4 mi
7:00 PM81 °FPassing clouds.3 mph74%29.83 "Hg4 mi
6:00 PM84 °FPassing clouds.3 mph66%29.80 "Hg4 mi
5:00 PM86 °FPassing clouds.8 mph59%29.80 "Hg4 mi
4:00 PM88 °FPassing clouds.5 mph59%29.80 "Hg4 mi
3:00 PM88 °FPassing clouds.6 mph55%29.80 "Hg4 mi
2:00 PM86 °FScattered clouds.5 mph59%29.83 "Hg4 mi
1:00 PM84 °FScattered clouds.3 mph62%29.86 "Hg4 mi
12:00 PM82 °FPartly sunny.7 mph66%29.89 "Hg4 mi
11:00 AM81 °FPartly sunny.8 mph70%29.92 "Hg4 mi
10:00 AM79 °FPartly sunny.8 mph74%29.95 "Hg4 mi
9:00 AM77 °FScattered clouds.3 mph74%29.95 "Hg4 mi
8:00 AM75 °FScattered clouds.2 mph83%29.95 "Hg4 mi
7:00 AM73 °FScattered clouds.3 mph89%29.95 "Hg4 mi
6:00 AM73 °FPartly sunny.No wind89%29.92 "Hg5 mi
5:00 AM73 °FPassing clouds.5 mph89%29.92 "Hg5 mi
4:00 AM73 °FPassing clouds.5 mph83%29.89 "Hg5 mi
3:00 AM73 °FPassing clouds.7 mph89%29.89 "Hg5 mi
2:00 AM73 °FPassing clouds.5 mph89%29.89 "Hg5 mi
1:00 AM73 °FPassing clouds.5 mph89%29.92 "Hg5 mi
Weather by CustomWeather, © 2015

See weather overviewHow to use our weather pages